Change the Weather History Date:

Wednesday, February 20, 2013

  Actual Average Record
Temperature  
Mean Temperature 14 °F -  
Max Temperature 26 °F 32 °F 44 °F (1985)
Min Temperature 2 °F 5 °F -18 °F (1984)
Degree Days  
Heating Degree Days 51 46  
Month to date heating degree days 1002 949  
Since 1 July heating degree days 7092 7346  
Cooling Degree Days 0 0  
Month to date cooling degree days 0 0  
Year to date cooling degree days 0 0  
Moisture  
Dew Point 12 °F    
Average Humidity 67    
Maximum Humidity 92    
Minimum Humidity 41    
Precipitation  
Precipitation 0.14 in 0.03 in 0.36 in (1986)
Month to date precipitation 0.59 0.47  
Year to date precipitation 1.26 1.09  
Sea Level Pressure  
Sea Level Pressure 29.49 in    
Wind  
Wind Speed 4 mph (South)    
Max Wind Speed 14 mph    
Max Gust Speed 17 mph    
Visibility 5 miles    
Events Fog , Snow    
T = Trace of Precipitation, MM = Missing Value Source: NWS Daily Summary

Daily Weather History Graph

Daily Weather History Graph

Search for Another Location

Airport or City:

Trip Planner

Search our weather history database for the weather conditions in past years. The results will help you decide how hot, cold, wet, or windy it might be!

Date:

Astronomy

Feb. 20, 2013 Rise Set
Actual Time 6:50 AM MST 5:48 PM MST
Civil Twilight 6:22 AM MST 6:15 PM MST
Nautical Twilight 5:51 AM MST 6:46 PM MST
Astronomical Twilight 5:20 AM MST 7:17 PM MST
Moon 1:13 PM MST (2/20) 3:11 AM MST (2/20)
Length of Visible Light 11h 52m
Length of Day
10h 58m
Waxing Gibbous, 76% of the Moon is Illuminated
Feb 20
Waxing Gibbous
Feb 25
Full
Mar 4
Last Quarter
Mar 11
New
Mar 19
First Quarter

Hourly Weather History & Observations

Time (MST) Temp. Windchill Dew Point Humidity Pressure Visibility Wind Dir Wind Speed Gust Speed Precip Events Conditions
12:53 AM 12.0 °F - -2.0 °F 53% 29.65 in 10.0 mi Calm Calm - N/A   Clear
1:53 AM 10.9 °F 2.9 °F -2.0 °F 56% 29.60 in 10.0 mi NNE 4.6 mph - N/A   Clear
2:53 AM 10.0 °F 3.6 °F -2.0 °F 58% 29.60 in 10.0 mi North 3.5 mph - N/A   Clear
3:53 AM 7.0 °F 0.1 °F -2.9 °F 64% 29.63 in 10.0 mi NE 3.5 mph - N/A   Clear
4:53 AM 16.0 °F - -0.9 °F 47% 29.58 in 10.0 mi Calm Calm - N/A   Clear
5:53 AM 12.0 °F - -2.0 °F 53% 29.63 in 10.0 mi Calm Calm - N/A   Clear
6:53 AM 3.9 °F -5.3 °F -4.0 °F 70% 29.68 in 10.0 mi NNE 4.6 mph - N/A   Clear
7:53 AM 14.0 °F - -0.9 °F 52% 29.62 in 10.0 mi Calm Calm - N/A   Partly Cloudy
8:53 AM 16.0 °F - -0.0 °F 49% 29.61 in 10.0 mi Calm Calm - N/A   Clear
9:53 AM 21.9 °F 17.2 °F 1.0 °F 40% 29.54 in 10.0 mi North 3.5 mph - N/A   Clear
10:53 AM 26.1 °F - 6.1 °F 43% 29.50 in 10.0 mi Calm Calm - N/A   Partly Cloudy
11:53 AM 24.1 °F 14.4 °F 9.0 °F 53% 29.49 in 10.0 mi South 9.2 mph - N/A   Overcast
12:53 PM 25.0 °F 15.5 °F 7.0 °F 46% 29.45 in 10.0 mi South 9.2 mph - N/A   Overcast
1:53 PM 24.1 °F 19.7 °F 10.9 °F 57% 29.44 in 10.0 mi SSW 3.5 mph - N/A   Overcast
2:53 PM 25.0 °F 17.1 °F 10.0 °F 53% 29.42 in 10.0 mi East 6.9 mph - N/A   Overcast
3:53 PM 24.1 °F 16.0 °F 14.0 °F 65% 29.44 in 10.0 mi North 6.9 mph - N/A   Overcast
4:23 PM 21.2 °F 8.9 °F 19.4 °F 93% 29.47 in 2.5 mi South 12.7 mph - 0.00 in Snow Light Snow
4:31 PM 21.2 °F 8.9 °F 19.4 °F 93% 29.47 in 1.0 mi South 12.7 mph - 0.00 in Snow Light Snow
4:38 PM 21.2 °F 8.9 °F 19.4 °F 93% 29.47 in 0.8 mi South 12.7 mph - 0.00 in Snow Light Snow
4:45 PM 19.4 °F 7.2 °F 19.4 °F 100% 29.47 in 0.8 mi South 11.5 mph - 0.01 in Snow Light Snow
4:53 PM 19.9 °F 9.3 °F 18.0 °F 92% 29.42 in 1.0 mi South 9.2 mph - 0.01 in Snow Light Snow
5:03 PM 19.4 °F 9.5 °F 19.4 °F 100% 29.47 in 2.0 mi South 8.1 mph - 0.00 in Snow Light Snow
5:08 PM 19.4 °F 9.5 °F 19.4 °F 100% 29.47 in 3.0 mi South 8.1 mph - 0.00 in Snow Light Snow
5:14 PM 19.4 °F 10.4 °F 19.4 °F 100% 29.47 in 1.8 mi South 6.9 mph - 0.00 in Snow Light Snow
5:25 PM 19.4 °F 11.5 °F 19.4 °F 100% 29.48 in 0.8 mi South 5.8 mph - 0.00 in Snow Light Snow
5:40 PM 19.4 °F 10.4 °F 17.6 °F 93% 29.48 in 0.8 mi South 6.9 mph - 0.01 in Snow Light Snow
5:48 PM 19.4 °F 12.8 °F 17.6 °F 93% 29.48 in 1.0 mi South 4.6 mph - 0.02 in Snow Light Snow
5:53 PM 19.9 °F 14.9 °F 18.0 °F 92% 29.45 in 2.0 mi South 3.5 mph - 0.02 in Snow Light Snow
6:09 PM 19.4 °F - 17.6 °F 93% 29.48 in 1.2 mi Calm Calm - 0.00 in Snow Light Snow
6:21 PM 19.4 °F 12.8 °F 17.6 °F 93% 29.48 in 0.8 mi North 4.6 mph - 0.01 in Snow Light Snow
6:29 PM 19.4 °F - 17.6 °F 93% 29.48 in 0.5 mi Calm Calm - 0.02 in Fog , Snow Snow
6:37 PM 19.4 °F - 17.6 °F 93% 29.48 in 1.0 mi Calm Calm - 0.02 in Snow Light Snow
6:47 PM 19.4 °F - 17.6 °F 93% 29.48 in 3.0 mi Calm Calm - 0.02 in Snow Light Snow
6:53 PM 19.0 °F - 17.1 °F 92% 29.51 in 4.0 mi Calm Calm - 0.02 in Snow Light Snow
7:05 PM 17.6 °F - 17.6 °F 100% 29.48 in 3.0 mi Calm Calm - 0.00 in Snow Light Snow
7:50 PM 19.4 °F - 15.8 °F 86% 29.48 in 10.0 mi Calm Calm - 0.01 in   Overcast
7:53 PM 19.0 °F - 16.0 °F 88% 29.44 in 10.0 mi Calm Calm - 0.01 in   Overcast
8:14 PM 19.4 °F - 17.6 °F 93% 29.48 in 1.8 mi Calm Calm - 0.00 in Snow Light Snow
8:28 PM 19.4 °F - 17.6 °F 93% 29.48 in 1.0 mi Calm Calm - 0.00 in Snow Light Snow
8:36 PM 19.4 °F - 17.6 °F 93% 29.48 in 0.8 mi Calm Calm - 0.01 in Snow Light Snow
8:45 PM 19.4 °F - 17.6 °F 93% 29.48 in 0.8 mi Calm Calm - 0.01 in Snow Light Snow
8:53 PM 19.0 °F - 17.1 °F 92% 29.43 in 0.5 mi Calm Calm - 0.02 in Fog , Snow Snow
9:11 PM 19.4 °F 14.3 °F 15.8 °F 86% 29.48 in 1.0 mi NW 3.5 mph - 0.02 in Snow Light Snow
9:53 PM 18.0 °F 6.9 °F 15.1 °F 88% 29.41 in 1.5 mi North 9.2 mph - 0.03 in Snow Light Snow
10:07 PM 17.6 °F 5.7 °F 14.0 °F 86% 29.48 in 3.0 mi North 10.4 mph - 0.00 in Snow Light Snow
10:50 PM 17.6 °F 7.3 °F 14.0 °F 86% 29.48 in 2.5 mi NNW 8.1 mph - 0.01 in Snow Light Snow
10:53 PM 18.0 °F 7.7 °F 14.0 °F 84% 29.38 in 1.8 mi NNW 8.1 mph - 0.01 in Snow Light Snow
11:16 PM 17.6 °F 6.4 °F 14.0 °F 86% 29.48 in 1.5 mi NNW 9.2 mph - 0.00 in Snow Light Snow
11:50 PM 17.6 °F 8.2 °F 14.0 °F 86% 29.49 in 1.2 mi NNW 6.9 mph - 0.01 in Snow Light Snow
11:53 PM 17.1 °F 7.6 °F 14.0 °F 88% 29.39 in 1.0 mi NW 6.9 mph - 0.01 in Snow Light Snow